Flag for Canada Weather past 2 weeks in Oshawa, Ontario, Canada

Now
19 °F

Clear.


Feels Like: 14 °F
Forecast: 16 / 39 °F
Wind: 3 mph from West

Location: Toronto Buttonville

Current Time: Mar 29, 2015 at 1:15:13 AM

Latest Report: Mar 29, 2015 at 12:00 AM


Visibility: 15 mi

Pressure: 30.28 "Hg

Humidity: 63%

Dew point: 9 °F

Location of OshawaLocation

Historic Weather in Oshawa — Graph

°F

Oshawa temperature yesterday

Maximum temperature yesterday: 27 °F (at 3:00 PM)
Minimum temperature yesterday: 12 °F (at 6:00 AM)
Average temperature yesterday: 20 °F

Past Weeks' High & Low Weather Summary

 TemperatureHumidityPressure
High50 °F (Mar 16, 4:00 PM)100% (Mar 14, 5:00 AM)30.43 "Hg (Mar 14, 5:00 AM)
Low10 °F (Mar 23, 7:00 AM)25% (Mar 19, 2:00 PM)29.68 "Hg (Mar 17, 2:00 AM)
Average30 °F65%30.08 "Hg
* Reported Midnight between Mar 13 and Mar 14 — Midnight between Mar 28 and Mar 29, Oshawa, Weather by CustomWeather, © 2015

Note: Actual official high and low records may vary slightly from our data, if they occured in-between our weather recording intervals... More about our weather records

Advertising

Oshawa weather history for previous 24 hours

 ConditionsComfort  
Time TempWeatherWind HumidityBarometerVisibility
12:00 AM
Sun, Mar 29
19 °FClear.3 mph63%30.28 "Hg15 mi
11:00 PM
Sat, Mar 28
21 °FClear.5 mph58%30.27 "Hg15 mi
10:00 PM23 °FClear.5 mph50%30.26 "Hg15 mi
9:00 PM23 °FClear.10 mph46%30.25 "Hg15 mi
8:00 PM23 °FSunny.10 mph46%30.24 "Hg15 mi
7:00 PM25 °FSunny.14 mph46%30.22 "Hg15 mi
6:00 PM27 °FSunny.14 mph46%30.20 "Hg15 mi
5:00 PM27 °FSunny.12 mph43%30.19 "Hg15 mi
4:00 PM27 °FSunny.10 mph36%30.18 "Hg15 mi
3:00 PM27 °FSunny.15 mph39%30.18 "Hg15 mi
2:00 PM25 °FSunny.12 mph33%30.19 "Hg15 mi
1:00 PM25 °FSunny.21 mph33%30.20 "Hg15 mi
12:00 PM21 °FSunny.15 mph38%30.21 "Hg15 mi
11:00 AM19 °FSunny.17 mph42%30.22 "Hg15 mi
10:00 AM18 °FPassing clouds.15 mph41%30.21 "Hg15 mi
9:00 AM16 °FPassing clouds.13 mph48%30.20 "Hg15 mi
8:00 AM12 °FPassing clouds.10 mph57%30.18 "Hg15 mi
7:00 AM12 °FPassing clouds.10 mph62%30.16 "Hg15 mi
6:00 AM12 °FPassing clouds.8 mph67%30.14 "Hg15 mi
5:00 AM14 °FPassing clouds.12 mph57%30.12 "Hg15 mi
4:00 AM14 °FPassing clouds.15 mph57%30.11 "Hg15 mi
3:00 AM16 °FPassing clouds.14 mph62%30.09 "Hg15 mi
2:00 AM16 °FPassing clouds.14 mph57%30.09 "Hg15 mi
1:00 AM18 °FPassing clouds.13 mph53%30.08 "Hg15 mi
Weather by CustomWeather, © 2015

See weather overviewHow to use our weather pages